Weather History for Hattiesburg, MS

Change the Weather History Date:

Wednesday, February 13, 2013

  Actual Average Record
Temperature  
Mean Temperature 47 °F 51 °F  
Max Temperature 56 °F 63 °F 84 °F (1962)
Min Temperature 37 °F 40 °F 18 °F (1958)
Degree Days  
Heating Degree Days 18 14  
Month to date heating degree days 117 199  
Since 1 July heating degree days 1196 1498  
Cooling Degree Days 0 0  
Month to date cooling degree days 0 0  
Year to date cooling degree days 28 6  
Moisture  
Dew Point 44 °F    
Average Humidity 74    
Maximum Humidity 93    
Minimum Humidity 54    
Precipitation  
Precipitation 0.04 in 0.20 in 2.97 in (1966)
Month to date precipitation 7.43 2.37  
Year to date precipitation 15.36 8.11  
Sea Level Pressure  
Sea Level Pressure 29.97 in    
Wind  
Wind Speed 8 mph (WNW)    
Max Wind Speed 16 mph    
Max Gust Speed 22 mph    
Visibility 10 miles    
Events Rain    
T = Trace of Precipitation, MM = Missing Value Source: NWS Daily Summary

Daily Weather History Graph

Daily Weather History Graph

Search for Another Location

Airport:

Trip Planner

Search our weather history database for the weather conditions in past years. The results will help you decide how hot, cold, wet, or windy it might be!

Date:

Astronomy

Feb. 13, 2013 Rise Set
Actual Time 6:39 AM CST 5:42 PM CST
Civil Twilight 6:15 AM CST 6:07 PM CST
Nautical Twilight 5:46 AM CST 6:36 PM CST
Astronomical Twilight 5:18 AM CST 7:04 PM CST
Moon 8:27 AM CST (2/13) 9:25 PM CST (2/13)
Length of Visible Light 11h 52m
Length of Day
11h 02m
Waxing Crescent, 14% of the Moon is Illuminated
Feb 13
Waxing Crescent
Feb 17
First Quarter
Feb 25
Full
Mar 4
Last Quarter
Mar 11
New

Hourly Weather History & Observations

Time (CST) Temp. Windchill Dew Point Humidity Pressure Visibility Wind Dir Wind Speed Gust Speed Precip Events Conditions
12:04 AM 55.4 °F - 53.6 °F 94% 29.83 in 3.0 mi WNW 3.5 mph - N/A   Overcast
12:43 AM 55.4 °F - 53.6 °F 94% 29.85 in 10.0 mi West 9.2 mph - N/A   Overcast
12:53 AM 55.0 °F - 53.1 °F 93% 29.86 in 10.0 mi West 9.2 mph - N/A   Overcast
1:34 AM 55.4 °F - 53.6 °F 94% 29.86 in 10.0 mi West 8.1 mph - N/A   Overcast
1:53 AM 55.9 °F - 52.0 °F 87% 29.85 in 10.0 mi West 4.6 mph - N/A   Mostly Cloudy
2:06 AM 55.4 °F - 51.8 °F 88% 29.86 in 10.0 mi WSW 3.5 mph - N/A   Scattered Clouds
2:53 AM 55.0 °F - 51.1 °F 86% 29.87 in 10.0 mi West 5.8 mph - N/A   Partly Cloudy
3:53 AM 54.0 °F - 48.9 °F 83% 29.89 in 10.0 mi West 10.4 mph - N/A   Partly Cloudy
4:53 AM 52.0 °F - 46.9 °F 83% 29.89 in 10.0 mi WNW 9.2 mph - N/A   Clear
5:51 AM 51.8 °F - 46.4 °F 82% 29.90 in 10.0 mi WNW 5.8 mph - N/A   Overcast
5:53 AM 52.0 °F - 46.0 °F 80% 29.91 in 10.0 mi WNW 8.1 mph - N/A   Overcast
6:53 AM 51.1 °F - 45.0 °F 80% 29.93 in 10.0 mi WNW 6.9 mph - N/A   Mostly Cloudy
7:53 AM 51.1 °F - 45.0 °F 80% 29.96 in 10.0 mi WNW 9.2 mph - N/A   Scattered Clouds
8:16 AM 51.8 °F - 44.6 °F 76% 29.99 in 10.0 mi West 8.1 mph - 0.00 in   Mostly Cloudy
8:24 AM 51.8 °F - 44.6 °F 76% 30.00 in 10.0 mi WNW 8.1 mph - 0.00 in   Mostly Cloudy
8:35 AM 51.8 °F - 46.4 °F 82% 29.99 in 10.0 mi WNW 6.9 mph - 0.00 in Rain Light Rain
8:53 AM 51.1 °F - 46.0 °F 83% 30.00 in 10.0 mi WNW 6.9 mph - 0.00 in Rain Light Rain
9:53 AM 48.9 °F - 43.0 °F 80% 30.01 in 10.0 mi NW 11.5 mph 19.6 mph 0.01 in Rain Light Rain
10:53 AM 48.0 °F - 43.0 °F 83% 30.01 in 10.0 mi NW 10.4 mph 17.3 mph 0.03 in Rain Light Rain
11:05 AM 48.2 °F - 42.8 °F 82% 29.99 in 10.0 mi NW 4.6 mph - 0.00 in   Overcast
11:53 AM 50.0 °F - 42.1 °F 74% 29.99 in 10.0 mi NW 11.5 mph 21.9 mph 0.00 in   Mostly Cloudy
12:53 PM 51.1 °F - 41.0 °F 68% 29.99 in 10.0 mi NW 11.5 mph 18.4 mph N/A   Overcast
1:53 PM 52.0 °F - 39.9 °F 63% 29.99 in 10.0 mi WNW 13.8 mph - N/A   Overcast
2:53 PM 52.0 °F - 39.0 °F 61% 29.99 in 10.0 mi NW 9.2 mph - N/A   Overcast
3:53 PM 53.1 °F - 37.9 °F 57% 29.99 in 10.0 mi NNW 11.5 mph - N/A   Overcast
4:53 PM 52.0 °F - 39.0 °F 61% 30.01 in 10.0 mi NNW 9.2 mph - N/A   Mostly Cloudy
5:53 PM 51.1 °F - 37.9 °F 61% 30.02 in 10.0 mi NNW 8.1 mph - N/A   Overcast
6:53 PM 50.0 °F - 39.0 °F 66% 30.04 in 10.0 mi North 9.2 mph - N/A   Mostly Cloudy
7:53 PM 46.9 °F - 39.0 °F 74% 30.05 in 10.0 mi North 3.5 mph - N/A   Partly Cloudy
8:53 PM 46.0 °F 44.8 °F 37.9 °F 73% 30.07 in 10.0 mi NNW 3.5 mph - N/A   Clear
9:53 PM 42.1 °F - 37.0 °F 82% 30.08 in 10.0 mi Calm Calm - N/A   Clear
10:53 PM 39.0 °F - 36.0 °F 89% 30.09 in 8.0 mi Calm Calm - N/A   Clear
11:53 PM 37.9 °F - 35.1 °F 89% 30.09 in 6.0 mi Calm Calm - N/A   Clear